Regional Weather Roundup
Issued by NWS Midland/Odessa, TX

Home | Current Version | Previous Version | Text Only | Print | Product List | Glossary On
Versions: 1 2 3 4 5 6 7 8 9 10 11 12 13 14 15 16 17 18 19 20 21 22 23 24 25 26 27 28 29 30 31 32 33 34 35 36 37 38 39 40 41 42 43 44 45 46 47 48 49 50
000
ASUS44 KMAF 260110
RWRMAF
MIDLAND AREA WEATHER ROUNDUP
NATIONAL WEATHER SERVICE MIDLAND TX
800 PM CDT TUE APR 25 2017

...IN SOUTHWEST TEXAS AND SOUTHEAST NEW MEXICO...

CITY           SKY/WX    TMP DP  RH WIND       PRES   REMARKS
ALPINE         CLOUDY    84  23  10 W14G25    29.66R
ANDREWS        FAIR      82  31  16 NW12G17   29.48S
ARTESIA        CLEAR     81  32  17 W29G41    29.48S
BIG SPRING     MOCLDY    83  32  15 NW9       29.46S
CARLSBAD       CLEAR     83  28  13 W20G35    29.47S
DRYDEN           N/A     92  15   6 S9        29.44F
FORT STOCKTON  CLOUDY    90  24   9 W15G21    29.47S
GUAD PASS      CLOUDY    73  25  16 W47G55    29.59R
HOBBS          CLEAR     79  27  14 W17G31    29.51S
MARFA          CLOUDY    82  24  12 W28G35    29.64R
MIDLAND AIRPK  CLOUDY    87  28  12 W13G23    29.47R
MIDLAND INTL   CLEAR     86  29  12 W15       29.46R BLWGDUST
ODESSA         CLOUDY    86  28  12 W21G28    29.48R
PECOS          CLOUDY    89  28  11 W21       29.45R
PRESIDIO       FAIR      93  18   6 S16       29.52S
SEMINOLE       CLOUDY    80  28  15 W16       29.50S
SNYDER         CLEAR    N/A N/A N/A W12       29.44R
WINK           CLOUDY    87  25  10 NW23G33   29.44R
$$
...OTHER STATIONS IN TEXAS...

CITY           SKY/WX    TMP DP  RH WIND       PRES   REMARKS
ABILENE        CLEAR     85  40  20 S9        29.40S
AMARILLO       CLEAR     60  48  64 NE15G28   29.49R
AUSTIN         CLOUDY    81  70  69 SE10      29.49R
BROWNSVILLE    CLOUDY    81  73  76 S21G29    29.53F
CORPUS CHRISTI PTCLDY    78  73  84 S26G35    29.49S
DALLAS FTW     CLOUDY    82  68  62 S16G28    29.41S
DEL RIO        CLOUDY    85  65  51 E3        29.42R
EL PASO        MOCLDY    80  28  15 NW31G44   29.55F
HOUSTON INT    MOCLDY    78  69  73 S14G22    29.58S
LUBBOCK        PTCLDY    77  30  17 W9        29.47R
SAN ANGELO     CLEAR     89  24   9 S10       29.41F
SAN ANTONIO    MOCLDY    83  71  67 SE17G24   29.48S
WACO           PTCLDY    79  69  71 S18G28    29.45F
WICHITA FALLS  NOT AVBL
$$
...OTHER LOCATIONS IN NEW MEXICO...

CITY           SKY/WX    TMP DP  RH WIND       PRES   REMARKS
ALAMOGORDO     CLOUDY    75  30  19 W21G29    29.57R
ALBUQUERQUE    CLOUDY    47  40  76 N17       29.70R
CANNON AFB     CLEAR     69  32  25 W18G26    29.52R
CLOVIS         PTCLDY    70  32  24 W23G30    29.52S
HOLLOMAN AFB   CLOUDY    76  31  19 W18G36    29.59R
ROSWELL        CLEAR     78  29  16 NW13      29.51R
RUIDOSO        LGT RAIN  52  37  58 NW21G31   29.71R
SANTA FE       LGT RAIN  45  42  89 N8        29.69R
TRUTH OR CONSE PTCLDY    71  29  21 W30G39    29.59R
TUCUMCARI      CLEAR     70  36  28 W22G28    29.47R
$$



USA.gov is the U.S. government's official web portal to all federal, state and local government web resources and services.